Regional Weather Roundup
Issued by NWS Albany, NY

Home | Current Version | Previous Version | Text Only | Print | Product List | Glossary On
Versions: 1 2 3 4 5 6 7 8 9 10 11 12 13 14 15 16 17 18 19 20 21 22 23 24 25 26 27
000
ASUS41 KALY 280610
RWRALY

NEW YORK STATE HOURLY WEATHER ROUNDUP
NATIONAL WEATHER SERVICE ALBANY NY
200 AM EDT FRI APR 28 2017

NOTE: "FAIR" INDICATES FEW OR NO CLOUDS BELOW 12,000 FEET WITH NO
SIGNIFICANT WEATHER AND/OR NO OBSTRUCTIONS TO VISIBILITY.

NYZ032-033-038>043-046>054-057>066-NYZ062>081-082-084-280700-
EAST


CITY           SKY/WX    TMP DP  RH WIND       PRES   REMARKS
ALBANY         CLOUDY    63  57  81 S13G21    29.84S
GLENS FALLS    CLOUDY    64  57  78 S7        29.82F
POUGHKEEPSIE   CLOUDY    60  57  89 CALM      29.86S
NEWBURGH       CLOUDY    59  59 100 CALM      29.88F FOG
MONTGOMERY     CLOUDY    61  58  90 CALM      29.85S
WHITE PLAINS   DRZL/FOG  57  57 100 SE6       29.88S VSB 1/4
ISLIP          CLOUDY    56  56 100 SE5       29.89S FOG
NEW YORK CITY  FOG       59  57  93 CALM      29.88R VSB 1/4
CENTRAL PARK   CLOUDY    58  57  97 CALM      29.90S FOG
$$

NYZ005>009-017-018-044>046-055-056-280700-
CENTRAL


CITY           SKY/WX    TMP DP  RH WIND       PRES   REMARKS
FULTON         CLOUDY    62  58  86 S6        29.79R
SYRACUSE       LGT RAIN  63  62  97 NW6       29.79R
ROME           HVY RAIN  62  61  96 SE8       29.80R FOG
ELMIRA         MOCLDY    65  59  81 SW5       29.79R
BINGHAMTON     CLOUDY    59  58  96 W8        29.82S
MONTICELLO     CLOUDY    57  57 100 E6        29.87F
$$

NYZ026>034-041>043-087-280700-
NORTH


CITY           SKY/WX    TMP DP  RH WIND       PRES   REMARKS
WATERTOWN      CLOUDY    60  60 100 S6        29.78R
FORT DRUM      NOT AVBL
OGDENSBURG     LGT RAIN  62  60  93 S6        29.75F
MASSENA        LGT RAIN  68  59  73 W16G24    29.75R
SARANAC LAKE   CLOUDY    62  57  83 SW12      29.77R
PLATTSBURGH    CLOUDY    60  53  77 SE8       29.76R
$$

NYZ001>004-010>016-019>021-085-280700-
WEST


CITY           SKY/WX    TMP DP  RH WIND       PRES   REMARKS
NIAGARA FALLS  CLEAR     50  43  77 SW12      29.82R
BUFFALO        MOCLDY    51  44  77 SW14G24   29.85R
DUNKIRK        PTCLDY    51  43  74 SW15G23   29.88R
JAMESTOWN      PTCLDY    48  39  71 W13G22    29.88R
WELLSVILLE     CLOUDY    57  52  83 W10       29.87R
ROCHESTER      CLOUDY    57  47  69 W17       29.82R
PENN YAN       CLOUDY    63  54  72 SW7       29.82R
$$

             KEY
       WCI = WIND CHILL INDEX
       VSB = VISIBILITY
       HX  = HEAT INDEX
$$




USA.gov is the U.S. government's official web portal to all federal, state and local government web resources and services.